Demopolis Municipal Airport, AL

9:06 PM CST on November 11, 2019 (GMT -0600)
Demopolis Municipal Airport

Weather History for KDYA - September, 2019

Change the Weather History Date:

Sunday, September 15, 2019

  Actual Average (KNMM) Record (KNMM)
Temperature  
Mean Temperature 81 °F -  
Max Temperature 92 °F 84 °F 98 °F (2016)
Min Temperature 70 °F 64 °F 53 °F (2015)
Cooling Degree Days 16    
Growing Degree Days 31 (Base 50)    
Moisture  
Dew Point 70 °F    
Average Humidity 70    
Maximum Humidity 100    
Minimum Humidity 42    
Precipitation  
Precipitation 0.00 in - - ()
Sea Level Pressure  
Sea Level Pressure 30.07 in    
Wind  
Wind Speed 2 mph ()    
Max Wind Speed 10 mph    
Max Gust Speed 16 mph    
Visibility 8.5 miles    
Events      
Averages and records for this station are not official NWS values.
T = Trace of Precipitation, MM = Missing Value Source: Averaged Metar Reports

Daily Weather History Graph

Daily Weather History Graph

Search for Another Location

Airport or City:

Astronomy

Sep. 15, 2019 Rise Set
Actual Time 6:35 AM CDT 6:58 PM CDT
Civil Twilight 6:10 AM CDT 7:22 PM CDT
Nautical Twilight 5:41 AM CDT 7:51 PM CDT
Astronomical Twilight 5:12 AM CDT 8:20 PM CDT
Moon 8:08 PM CDT (9/15) 7:44 AM CDT (9/15)
Length of Visible Light 13h 11m
Length of Day
12h 22m
Full, 98% of the Moon is Illuminated
Sep 15
Full
Sep 21
Last Quarter
Sep 28
New
Oct 5
First Quarter
Oct 13
Full

Hourly Weather History & Observations

Time (CDT) Temp. Heat Index Dew Point Humidity Pressure Visibility Wind Dir Wind Speed Gust Speed Precip Events Conditions
12:15 AM - - - N/A% 30.10 in 5.0 mi Calm Calm - N/A   Haze
12:35 AM - - - N/A% 30.10 in 5.0 mi Calm Calm - N/A   Haze
12:55 AM - - - N/A% 30.10 in 7.0 mi Calm Calm - N/A   Clear
1:15 AM - - - N/A% 30.09 in 7.0 mi NNE 3.5 mph - N/A   Clear
1:35 AM - - - N/A% 30.09 in 7.0 mi North 4.6 mph - N/A   Clear
1:55 AM - - - N/A% 30.09 in 7.0 mi Calm Calm - N/A   Clear
2:15 AM 72.9 °F - 72.9 °F 100% 30.09 in 7.0 mi Calm Calm - N/A   Clear
2:55 AM 73.0 °F - 73.0 °F 100% 30.09 in 10.0 mi Calm Calm - N/A   Clear
3:15 AM 72.7 °F - 72.5 °F 99% 30.09 in 7.0 mi Calm Calm - N/A   Clear
3:35 AM 71.8 °F - 71.8 °F 100% 30.09 in 7.0 mi Calm Calm - N/A   Clear
4:15 AM 72.0 °F - 72.0 °F 100% 30.09 in 7.0 mi Calm Calm - N/A   Clear
4:35 AM 70.9 °F - 70.9 °F 100% 30.09 in 7.0 mi Calm Calm - N/A   Clear
4:55 AM - - - N/A% 30.10 in 5.0 mi Calm Calm - N/A   Clear
5:15 AM 71.2 °F - 71.2 °F 100% 30.10 in 7.0 mi Calm Calm - N/A   Clear
5:35 AM - - - N/A% 30.09 in 5.0 mi Calm Calm - N/A   Clear
5:55 AM - - - N/A% 30.10 in 7.0 mi Calm Calm - N/A   Clear
6:15 AM - - - N/A% 30.10 in 7.0 mi Calm Calm - N/A   Clear
6:35 AM - - - N/A% 30.11 in 7.0 mi Calm Calm - N/A   Clear
6:55 AM - - - N/A% 30.11 in 7.0 mi Calm Calm - N/A   Clear
7:15 AM - - - N/A% 30.11 in 7.0 mi Calm Calm - N/A   Clear
7:35 AM - - - N/A% 30.12 in 7.0 mi Calm Calm - N/A   Clear
7:55 AM 72.5 °F - 72.5 °F 100% 30.12 in 10.0 mi Calm Calm - N/A   Clear
8:15 AM 74.8 °F - 72.3 °F 92% 30.12 in 10.0 mi Calm Calm - N/A   Clear
8:35 AM 76.8 °F - 71.6 °F 84% 30.12 in 10.0 mi Calm Calm - N/A   Clear
8:55 AM 78.3 °F - 71.4 °F 79% 30.13 in 10.0 mi ENE 3.5 mph - N/A   Clear
9:15 AM 79.9 °F - 71.4 °F 75% 30.13 in 10.0 mi ENE 4.6 mph - N/A   Clear
9:35 AM 81.0 °F 84.9 °F 71.1 °F 72% 30.13 in 10.0 mi NE 4.6 mph - N/A   Clear
9:55 AM 83.3 °F 88.2 °F 71.4 °F 67% 30.13 in 10.0 mi East 3.5 mph - N/A   Clear
10:35 AM 86.0 °F 90.7 °F 70.2 °F 59% 30.12 in 10.0 mi East 5.8 mph - N/A   Clear
10:55 AM 86.2 °F 91.1 °F 70.3 °F 59% 30.12 in 10.0 mi NE 4.6 mph - N/A   Scattered Clouds
11:15 AM 87.1 °F 92.0 °F 70.0 °F 57% 30.11 in 7.0 mi ENE 6.9 mph - N/A   Scattered Clouds
11:35 AM 87.8 °F 92.2 °F 69.1 °F 54% 30.11 in 7.0 mi NNE 8.1 mph - N/A   Clear
11:55 AM 88.5 °F 91.9 °F 68.0 °F 50% 30.10 in 10.0 mi NNE 6.9 mph - N/A   Scattered Clouds
12:35 PM 89.4 °F 93.5 °F 68.7 °F 50% 30.09 in 10.0 mi North 9.2 mph - N/A   Scattered Clouds
12:55 PM 88.9 °F 93.0 °F 68.5 °F 51% 30.08 in 7.0 mi NNE 9.2 mph - N/A   Scattered Clouds
1:15 PM 90.1 °F 94.0 °F 68.0 °F 48% 30.07 in 7.0 mi NE 6.9 mph - N/A   Scattered Clouds
1:35 PM 90.1 °F 94.0 °F 68.2 °F 48% 30.06 in 7.0 mi North 10.4 mph - N/A   Clear
1:55 PM 90.1 °F 93.1 °F 67.1 °F 46% 30.06 in 7.0 mi North 9.2 mph - N/A   Clear
2:15 PM 90.9 °F 94.0 °F 67.1 °F 45% 30.05 in 10.0 mi NE 3.5 mph - N/A   Scattered Clouds
2:35 PM 91.2 °F 94.6 °F 67.3 °F 45% 30.04 in 10.0 mi NNE 6.9 mph - N/A   Clear
2:55 PM 90.5 °F 94.2 °F 67.8 °F 47% 30.04 in 7.0 mi North 6.9 mph 16.1 mph N/A   Scattered Clouds
3:15 PM 92.3 °F 96.1 °F 67.6 °F 44% 30.03 in 10.0 mi North 10.4 mph - N/A   Scattered Clouds
3:35 PM 91.6 °F 94.8 °F 66.7 °F 44% 30.02 in 10.0 mi North 10.4 mph - N/A   Clear
4:15 PM 92.1 °F 95.3 °F 66.6 °F 43% 30.02 in 10.0 mi NE 5.8 mph - N/A   Clear
4:35 PM 92.5 °F 95.4 °F 66.6 °F 42% 30.01 in 10.0 mi NNE 6.9 mph - N/A   Clear
4:55 PM 92.3 °F 95.6 °F 66.6 °F 43% 30.00 in 10.0 mi North 6.9 mph - N/A   Clear
5:15 PM 91.9 °F 95.0 °F 66.4 °F 43% 30.00 in 10.0 mi North 5.8 mph - N/A   Clear
5:55 PM 90.1 °F 94.9 °F 69.1 °F 50% 30.00 in 10.0 mi North 5.8 mph - N/A   Mostly Cloudy
6:15 PM 88.9 °F 93.4 °F 69.3 °F 52% 30.00 in 10.0 mi NNW 3.5 mph - N/A   Scattered Clouds
6:35 PM 87.6 °F 92.3 °F 69.6 °F 55% 30.01 in 10.0 mi Calm Calm - N/A   Clear
6:55 PM 85.3 °F 90.4 °F 71.1 °F 62% 30.00 in 10.0 mi Calm Calm - N/A   Clear
7:15 PM 82.8 °F 87.7 °F 71.6 °F 69% 30.00 in 10.0 mi Calm Calm - N/A   Clear
7:35 PM 81.5 °F 86.1 °F 72.0 °F 73% 30.00 in 10.0 mi Calm Calm - N/A   Clear
7:55 PM 79.9 °F - 71.8 °F 76% 30.00 in 10.0 mi Calm Calm - N/A   Clear
8:35 PM 78.1 °F - 72.0 °F 81% 30.01 in 7.0 mi Calm Calm - N/A   Clear
8:55 PM 77.5 °F - 72.0 °F 83% 30.02 in 10.0 mi Calm Calm - N/A   Clear
9:15 PM 76.6 °F - 72.1 °F 86% 30.02 in 10.0 mi Calm Calm - N/A   Clear
9:35 PM 76.1 °F - 72.0 °F 87% 30.03 in 10.0 mi Calm Calm - N/A   Clear
10:35 PM 74.5 °F - 72.1 °F 92% 30.04 in 10.0 mi Calm Calm - N/A   Clear
10:55 PM 74.3 °F - 72.0 °F 92% 30.03 in 10.0 mi Calm Calm - N/A   Clear
11:15 PM 74.3 °F - 72.1 °F 93% 30.03 in 10.0 mi Calm Calm - N/A   Clear
11:35 PM 73.9 °F - 72.3 °F 95% 30.04 in 10.0 mi Calm Calm - N/A   Clear
11:55 PM 73.8 °F - 72.3 °F 95% 30.03 in 7.0 mi Calm Calm - N/A   Clear